Location: Pedholt
(56.0260°N, 10.2097°E)
Time: 09:23:17
(UTC+00:00)

Tiros 1 despin weight - All Passes

Search period start: 31 July 2021 00:00
Search period end: 10 August 2021 00:00
Orbit: 593 x 642 km, 48.2° (Epoch: 30 July)

Date Brightness Start Highest point End Pass type
(mag) Time Alt. Az. Time Alt. Az. Time Alt. Az.
31 Jul - 14:03:33 10° SSW 14:07:18 24° SSE 14:11:03 10° ESE daylight
31 Jul - 15:43:56 10° WSW 15:48:06 32° S 15:52:14 10° ESE daylight
31 Jul - 17:25:10 10° WSW 17:28:52 23° SSW 17:32:33 10° SSE daylight
01 Aug - 12:40:01 10° S 12:42:41 15° SSE 12:45:22 10° ESE daylight
01 Aug - 14:19:14 10° SW 14:23:16 29° SSE 14:27:17 10° ESE daylight
01 Aug - 16:00:01 10° WSW 16:04:06 30° S 16:08:11 10° SE daylight
01 Aug - 17:41:38 10° WSW 17:44:46 18° SSW 17:47:52 10° SSE daylight
02 Aug - 12:55:04 10° SSW 12:58:32 21° SSE 13:02:00 10° ESE daylight
02 Aug - 14:35:07 10° WSW 14:39:16 31° S 14:43:24 10° ESE daylight
02 Aug - 16:16:10 10° WSW 16:20:05 26° SSW 16:23:58 10° SE daylight
02 Aug - 17:58:38 10° WSW 18:00:34 12° SW 18:02:27 10° S daylight
03 Aug - 11:32:15 10° SSE 11:33:59 12° SE 11:35:45 10° ESE daylight
03 Aug - 13:10:34 10° SW 13:14:27 26° SSE 13:18:20 10° ESE daylight
03 Aug - 14:51:07 10° WSW 14:55:16 31° S 14:59:25 10° ESE daylight
03 Aug - 16:32:29 10° WSW 16:36:00 21° SSW 16:39:30 10° SSE daylight
04 Aug - 11:46:43 10° SSW 11:49:47 17° SSE 11:52:51 10° ESE daylight
04 Aug - 13:26:21 10° SW 13:30:25 30° S 13:34:31 10° ESE daylight
04 Aug - 15:07:13 10° WSW 15:11:16 29° SSW 15:15:18 10° SE daylight
04 Aug - 16:49:05 10° WSW 16:51:52 16° SSW 16:54:36 10° S daylight
05 Aug - 12:02:00 10° SSW 12:05:40 23° SSE 12:09:19 10° ESE daylight
05 Aug - 13:42:16 10° WSW 13:46:25 32° S 13:50:35 10° ESE daylight
05 Aug - 15:23:27 10° WSW 15:27:13 24° SSW 15:31:00 10° SE daylight
05 Aug - 17:06:52 10° SW 17:07:37 10° SW 17:08:20 10° SSW daylight
06 Aug - 10:38:39 10° S 10:41:04 14° SSE 10:43:28 10° ESE daylight
06 Aug - 12:17:38 10° SW 12:21:36 28° SSE 12:25:34 10° ESE daylight
06 Aug - 13:58:19 10° WSW 14:02:25 31° S 14:06:33 10° SE daylight
06 Aug - 15:39:50 10° WSW 15:43:07 19° SSW 15:46:24 10° SSE daylight
07 Aug - 10:53:34 10° SSW 10:56:53 19° SSE 11:00:13 10° ESE daylight
07 Aug - 12:33:28 10° SW 12:37:34 31° S 12:41:42 10° ESE daylight
07 Aug - 14:14:27 10° WSW 14:18:25 27° SSW 14:22:22 10° SE daylight
07 Aug - 15:56:39 10° WSW 15:58:56 13° SW 16:01:12 10° S daylight
08 Aug - 09:31:15 10° SSE 09:32:22 11° SE 09:33:30 10° SE daylight
08 Aug - 11:08:59 10° SW 11:12:47 25° SSE 11:16:35 10° ESE daylight
08 Aug - 12:49:26 10° WSW 12:53:35 32° S 12:57:45 10° ESE daylight
08 Aug - 14:30:44 10° WSW 14:34:21 22° SSW 14:37:58 10° SSE daylight
09 Aug - 09:45:19 10° S 09:48:08 16° SSE 09:50:59 10° ESE daylight
09 Aug - 11:24:43 10° SW 11:28:44 29° S 11:32:48 10° ESE daylight
09 Aug - 13:05:32 10° WSW 13:09:35 30° S 13:13:39 10° SE daylight
09 Aug - 14:47:15 10° WSW 14:50:12 17° SSW 14:53:11 10° S daylight
